Weather History for Elefsis, Greece

Change the Weather History Date:

Wednesday, May 15, 2013

  Actual Average Record
Temperature  
Mean Temperature 66 °F -  
Max Temperature 78 °F 81 °F 91 °F (2007)
Min Temperature 55 °F 62 °F 51 °F (2001)
Cooling Degree Days 2    
Growing Degree Days 16 (Base 50)    
Moisture  
Dew Point 52 °F    
Average Humidity 56    
Maximum Humidity 82    
Minimum Humidity 36    
Precipitation  
Precipitation 0.00 in - - ()
Sea Level Pressure  
Sea Level Pressure 29.86 in    
Wind  
Wind Speed 2 mph ()    
Max Wind Speed 12 mph    
Max Gust Speed -    
Visibility 6.2 miles    
Events      
Averages and records for this station are not official NWS values.
T = Trace of Precipitation, MM = Missing Value Source: Averaged Metar Reports

Daily Weather History Graph

Daily Weather History Graph

Search for Another Location

Airport:

Trip Planner

Search our weather history database for the weather conditions in past years. The results will help you decide how hot, cold, wet, or windy it might be!

Date:

Astronomy

May. 15, 2013 Rise Set
Actual Time 6:15 AM EEST 8:29 PM EEST
Civil Twilight 5:45 AM EEST 8:59 PM EEST
Nautical Twilight 5:09 AM EEST 9:35 PM EEST
Astronomical Twilight 4:30 AM EEST 10:15 PM EEST
Moon 10:32 AM EEST (5/15) 12:04 AM EEST (5/15)
Length of Visible Light 15h 13m
Length of Day
14h 14m
Waxing Crescent, 24% of the Moon is Illuminated
May 15
Waxing Crescent
May 18
First Quarter
May 25
Full
May 31
Last Quarter
Jun 8
New

Hourly Weather History & Observations

Time (EEST) Temp. Dew Point Humidity Pressure Visibility Wind Dir Wind Speed Gust Speed Precip Events Conditions
12:50 AM 59.0 °F 50.0 °F 72% 29.86 in - Calm Calm - N/A   Clear
1:50 AM 57.2 °F 50.0 °F 77% 29.86 in - Calm Calm - N/A   Clear
2:50 AM 57.2 °F 50.0 °F 77% 29.86 in - Calm Calm - N/A   Clear
3:50 AM 57.2 °F 50.0 °F 77% 29.86 in - Calm Calm - N/A   Clear
4:50 AM 57.2 °F 50.0 °F 77% 29.83 in - Calm Calm - N/A   Clear
5:20 AM 55.4 °F 50.0 °F 82% 29.83 in 6.2 mi Calm Calm - N/A   Partly Cloudy
5:50 AM 55.4 °F 50.0 °F 82% 29.86 in 6.2 mi Calm Calm - N/A   Partly Cloudy
6:20 AM 55.4 °F 50.0 °F 82% 29.86 in 6.2 mi Calm Calm - N/A   Partly Cloudy
6:50 AM 57.2 °F 51.8 °F 82% 29.86 in 6.2 mi Calm Calm - N/A   Partly Cloudy
7:20 AM 59.0 °F 51.8 °F 77% 29.86 in 6.2 mi Calm Calm - N/A   Partly Cloudy
7:50 AM 64.4 °F 51.8 °F 64% 29.86 in 6.2 mi Calm Calm - N/A   Partly Cloudy
8:20 AM 68.0 °F 51.8 °F 56% 29.86 in 6.2 mi Calm Calm - N/A   Partly Cloudy
8:50 AM 68.0 °F 51.8 °F 56% 29.86 in 6.2 mi Calm Calm - N/A   Partly Cloudy
9:20 AM 71.6 °F 51.8 °F 50% 29.86 in - Calm Calm - N/A   Clear
9:50 AM 73.4 °F 51.8 °F 47% 29.89 in - Calm Calm - N/A   Clear
10:20 AM 73.4 °F 51.8 °F 47% 29.89 in 6.2 mi Calm Calm - N/A   Partly Cloudy
10:50 AM 75.2 °F 51.8 °F 44% 29.89 in 6.2 mi Calm Calm - N/A   Partly Cloudy
11:20 AM 75.2 °F 51.8 °F 44% 29.89 in 6.2 mi Calm Calm - N/A   Partly Cloudy
11:50 AM 77.0 °F 53.6 °F 44% 29.86 in 6.2 mi South 4.6 mph - N/A   Partly Cloudy
12:20 PM 77.0 °F 53.6 °F 44% 29.86 in 6.2 mi South 4.6 mph - N/A   Partly Cloudy
12:50 PM 78.8 °F 51.8 °F 39% 29.86 in 6.2 mi South 6.9 mph - N/A   Partly Cloudy
1:20 PM 78.8 °F 51.8 °F 39% 29.86 in 6.2 mi South 5.8 mph - N/A   Partly Cloudy
1:50 PM 78.8 °F 50.0 °F 36% 29.86 in 6.2 mi South 8.1 mph - N/A   Partly Cloudy
2:20 PM 78.8 °F 51.8 °F 39% 29.86 in 6.2 mi South 6.9 mph - N/A   Partly Cloudy
2:50 PM 78.8 °F 53.6 °F 42% 29.86 in 6.2 mi South 11.5 mph - N/A   Partly Cloudy
3:20 PM 78.8 °F 50.0 °F 36% 29.86 in 6.2 mi South 9.2 mph - N/A   Partly Cloudy
3:50 PM 77.0 °F 50.0 °F 39% 29.86 in 6.2 mi South 8.1 mph - N/A   Partly Cloudy
4:20 PM 77.0 °F 50.0 °F 39% 29.86 in 6.2 mi SSE 9.2 mph - N/A   Partly Cloudy
4:50 PM 77.0 °F 50.0 °F 39% 29.86 in 6.2 mi South 8.1 mph - N/A   Partly Cloudy
5:20 PM 75.2 °F 50.0 °F 41% 29.86 in 6.2 mi South 6.9 mph - N/A   Partly Cloudy
5:50 PM 75.2 °F 48.2 °F 38% 29.86 in 6.2 mi South 6.9 mph - N/A   Mostly Cloudy
6:20 PM 75.2 °F 50.0 °F 41% 29.86 in 6.2 mi SSE 8.1 mph - N/A   Partly Cloudy
6:50 PM 75.2 °F 46.4 °F 36% 29.86 in 6.2 mi South 6.9 mph - N/A   Partly Cloudy
7:20 PM 73.4 °F 50.0 °F 44% 29.86 in 6.2 mi South 4.6 mph - N/A   Partly Cloudy
7:50 PM 71.6 °F 51.8 °F 50% 29.86 in 6.2 mi Calm Calm - N/A   Partly Cloudy
8:20 PM 69.8 °F 53.6 °F 56% 29.86 in 6.2 mi Calm Calm - N/A   Partly Cloudy
8:50 PM 69.8 °F 51.8 °F 53% 29.86 in - Calm Calm - N/A   Clear
9:20 PM 68.0 °F 55.4 °F 64% 29.86 in - Calm Calm - N/A   Clear
9:50 PM 68.0 °F 57.2 °F 68% 29.89 in - Calm Calm - N/A   Clear
10:20 PM 66.2 °F 57.2 °F 73% 29.89 in - Calm Calm - N/A   Clear
10:50 PM 66.2 °F 55.4 °F 68% 29.89 in - Calm Calm - N/A   Clear
11:20 PM 64.4 °F 55.4 °F 73% 29.89 in - Calm Calm - N/A   Clear
11:50 PM 62.6 °F 55.4 °F 77% 29.89 in - Calm Calm - N/A   Clear